Date String (YYYY-MM-DD hh:mm:ss) UTC,Instrument flags,absolute air pressure of the measurement (hPa),sample flow rate (lpm),inlet stack bypass flow (lpm),air temperature of the measurement (°C),ambient temperature measured by the external sensor (°C),aerosol sample conditioner tube jacket temperature (°C),OPC LED temperature (°C),internal box temperature (°C),relative humidity of the measurement (%),span deviation,mass concentration of particles derived from Lorenz-Mie calculation of OPC scattering (μg/m³),mass concentration of particles derived from Lorenz-Mie calculation of OPC scattering (μg/m³),mass concentration of particles derived from Lorenz-Mie calculation of OPC scattering (μg/m³)
DateTimeUTC,F1_M11,P_M11,Q1_M11,Q2_M11,T1_M11,T2_M11,T3_M11,T4_M11,T5_M11,U1_M11,ZSPAN_M11,X0_M11,X2_M11,X1_M11
2023-10-16 09:00:00,SystemResetWarning,0839.3,5.01,000.00,028.2,026.7,000.0,036.7,029.9,13.7,0000.0,0006.16,0003.54,0003.20
2023-10-16 09:01:00,SystemResetWarning,0839.3,5.00,000.00,028.2,026.7,000.0,036.7,029.9,13.7,0000.0,0006.61,0003.55,0003.20
2023-10-16 09:02:00,SystemResetWarning,0839.4,5.00,000.00,028.2,026.7,000.0,036.7,029.8,13.7,0000.0,0006.54,0003.55,0003.20
2023-10-16 09:03:00,SystemResetWarning,0839.4,4.98,000.00,028.2,026.7,000.0,036.7,029.8,13.7,0000.0,0006.39,0003.53,0003.20
2023-10-16 09:04:00,SystemResetWarning,0839.4,5.02,000.00,028.2,026.7,000.0,036.7,029.8,13.7,0000.0,0006.31,0003.51,0003.20
2023-10-16 09:05:00,SystemResetWarning,0839.4,5.00,000.00,028.2,026.7,000.0,036.7,029.8,13.7,0000.0,0006.90,0003.52,0003.21
2023-10-16 09:06:00,SystemResetWarning,0839.3,4.98,000.00,028.2,026.7,000.0,036.7,029.8,13.7,0000.0,0007.23,0003.53,0003.20
2023-10-16 09:07:00,SystemResetWarning,0839.3,5.01,000.00,028.2,026.7,000.0,036.7,029.8,13.7,0000.0,0007.32,0003.54,0003.20
2023-10-16 09:08:00,SystemResetWarning,0839.3,5.01,000.00,028.2,026.7,000.0,036.7,029.8,13.7,0000.0,0007.35,0003.54,0003.20
2023-10-16 09:09:00,SystemResetWarning,0839.2,5.01,000.00,028.2,026.6,000.0,036.7,029.8,13.8,0000.0,0007.31,0003.54,0003.20
2023-10-16 09:10:00,SystemResetWarning,0839.2,4.99,000.00,028.2,026.6,000.0,036.7,029.8,13.9,0000.0,0007.71,0003.51,0003.20
2023-10-16 09:11:00,SystemResetWarning,0839.2,4.99,000.00,028.2,026.6,000.0,036.7,029.8,13.9,0000.0,0007.81,0003.49,0003.20
2023-10-16 09:12:00,SystemResetWarning,0839.2,4.99,000.00,028.2,026.6,000.0,036.7,029.8,13.9,0000.0,0007.44,0003.48,0003.20
2023-10-16 09:13:00,SystemResetWarning,0839.2,5.01,000.00,028.2,026.6,000.0,036.7,029.8,13.9,0000.0,0007.61,0003.49,0003.21
2023-10-16 09:14:00,SystemResetWarning,0839.2,5.00,000.00,028.2,026.6,000.0,036.7,029.8,14.0,0000.0,0007.68,0003.52,0003.22
2023-10-16 09:15:00,SystemResetWarning,0839.2,5.01,000.00,028.2,026.6,000.0,036.7,029.8,14.0,0000.0,0007.83,0003.56,0003.23
2023-10-16 09:16:00,SystemResetWarning,0839.2,5.01,000.00,028.2,026.6,000.0,036.7,029.8,14.1,0000.0,0007.71,0003.56,0003.22
2023-10-16 09:17:00,SystemResetWarning,0839.2,5.00,000.00,028.2,026.6,000.0,036.6,029.8,14.0,0000.0,0007.44,0003.53,0003.22
2023-10-16 09:18:00,SystemResetWarning,0839.2,4.99,000.00,028.2,026.6,000.0,036.6,029.8,14.0,0000.0,0007.46,0003.52,0003.22
2023-10-16 09:19:00,SystemResetWarning,0839.2,5.01,000.00,028.2,026.6,000.0,036.6,029.8,14.0,0000.0,0007.49,0003.52,0003.21
2023-10-16 09:20:00,SystemResetWarning,0839.2,5.00,000.00,028.2,026.6,000.0,036.6,029.8,13.9,0000.0,0007.45,0003.50,0003.20
2023-10-16 09:21:00,SystemResetWarning,0839.2,5.00,000.00,028.2,026.6,000.0,036.6,029.8,13.9,0000.0,0006.75,0003.51,0003.21
2023-10-16 09:22:00,SystemResetWarning,0839.2,5.00,000.00,028.2,026.6,000.0,036.6,029.8,14.0,0000.0,0006.25,0003.52,0003.23
2023-10-16 09:23:00,SystemResetWarning,0839.2,5.00,000.00,028.2,026.6,000.0,036.6,029.8,14.0,0000.0,0006.79,0003.52,0003.22
2023-10-16 09:24:00,SystemResetWarning,0839.2,5.00,000.00,028.2,026.6,000.0,036.7,029.8,13.9,0000.0,0007.60,0003.52,0003.22
2023-10-16 09:25:00,SystemResetWarning,0839.2,4.99,000.00,028.2,026.6,000.0,036.6,029.8,13.8,0000.0,0007.57,0003.50,0003.21
2023-10-16 09:26:00,SystemResetWarning,0839.1,5.00,000.00,028.2,026.6,000.0,036.6,029.8,13.9,0000.0,0007.45,0003.48,0003.22
2023-10-16 09:27:00,SystemResetWarning,0839.1,4.99,000.00,028.1,026.6,000.0,036.6,029.8,13.9,0000.0,0007.43,0003.50,0003.22
2023-10-16 09:28:00,SystemResetWarning,0839.1,5.00,000.00,028.1,026.6,000.0,036.6,029.8,13.9,0000.0,0007.41,0003.51,0003.23
2023-10-16 09:29:00,SystemResetWarning,0839.1,5.00,000.00,028.1,026.6,000.0,036.6,029.8,13.8,0000.0,0007.49,0003.49,0003.24
2023-10-16 09:30:00,SystemResetWarning,0839.1,5.00,000.00,028.2,026.6,000.0,036.6,029.8,13.8,0000.0,0007.73,0003.49,0003.24
2023-10-16 09:31:00,SystemResetWarning,0839.1,5.00,000.00,028.2,026.6,000.0,036.6,029.8,13.8,0000.0,0007.72,0003.49,0003.24
2023-10-16 09:32:00,SystemResetWarning,0839.1,5.00,000.00,028.2,026.6,000.0,036.6,029.8,13.8,0000.0,0007.82,0003.52,0003.24
2023-10-16 09:33:00,SystemResetWarning,0839.1,5.00,000.00,028.2,026.6,000.0,036.6,029.8,13.8,0000.0,0007.87,0003.56,0003.24
2023-10-16 09:34:00,SystemResetWarning,0839.1,5.00,000.00,028.2,026.6,000.0,036.6,029.8,13.8,0000.0,0007.52,0003.56,0003.24
2023-10-16 09:35:00,SystemResetWarning,0839.0,5.00,000.00,028.2,026.6,000.0,036.6,029.8,13.8,0000.0,0006.35,0003.54,0003.24
2023-10-16 09:36:00,SystemResetWarning,0838.9,4.99,000.00,028.1,026.6,000.0,036.6,029.8,13.8,0000.0,0006.45,0003.55,0003.24
2023-10-16 09:37:00,SystemResetWarning,0838.9,4.99,000.00,028.1,026.6,000.0,036.6,029.8,13.8,0000.0,0006.58,0003.55,0003.23
2023-10-16 09:38:00,SystemResetWarning,0838.9,5.00,000.00,028.1,026.6,000.0,036.6,029.8,13.8,0000.0,0006.54,0003.54,0003.22
2023-10-16 09:39:00,SystemResetWarning,0838.9,5.00,000.00,028.1,026.6,000.0,036.6,029.8,13.8,0000.0,0006.79,0003.57,0003.23
2023-10-16 09:40:00,SystemResetWarning,0838.9,5.00,000.00,028.1,026.6,000.0,036.6,029.8,13.8,0000.0,0007.54,0003.57,0003.23
2023-10-16 09:41:00,SystemResetWarning,0838.9,5.01,000.00,028.1,026.6,000.0,036.6,029.8,13.8,0000.0,0007.40,0003.58,0003.23
2023-10-16 09:42:00,SystemResetWarning,0838.9,5.00,000.00,028.1,026.6,000.0,036.6,029.8,13.8,0000.0,0007.39,0003.59,0003.23
2023-10-16 09:43:00,SystemResetWarning,0838.9,5.01,000.00,028.1,026.5,000.0,036.6,029.7,13.9,0000.0,0007.27,0003.56,0003.23
2023-10-16 09:44:00,SystemResetWarning,0838.9,5.00,000.00,028.1,026.5,000.0,036.6,029.8,13.9,0000.0,0007.21,0003.52,0003.22
2023-10-16 09:45:00,SystemResetWarning,0838.8,5.00,000.00,028.1,026.5,000.0,036.6,029.7,13.9,0000.0,0007.28,0003.54,0003.23
2023-10-16 09:46:00,SystemResetWarning,0838.8,5.00,000.00,028.1,026.5,000.0,036.6,029.7,13.9,0000.0,0007.34,0003.57,0003.25
2023-10-16 09:47:00,SystemResetWarning,0838.8,5.00,000.00,028.1,026.5,000.0,036.6,029.7,13.9,0000.0,0007.28,0003.59,0003.27
2023-10-16 09:48:00,SystemResetWarning,0838.8,5.00,000.00,028.1,026.5,000.0,036.6,029.7,13.9,0000.0,0007.42,0003.60,0003.29
2023-10-16 09:49:00,SystemResetWarning,0838.9,5.00,000.00,028.1,026.5,000.0,036.6,029.7,13.9,0000.0,0007.43,0003.61,0003.30
2023-10-16 09:50:00,SystemResetWarning,0838.8,5.00,000.00,028.1,026.5,000.0,036.6,029.7,13.9,0000.0,0007.40,0003.63,0003.32
2023-10-16 09:51:00,SystemResetWarning,0838.9,5.00,000.00,028.1,026.5,000.0,036.6,029.7,13.9,0000.0,0006.47,0003.67,0003.34
2023-10-16 09:52:00,SystemResetWarning,0838.9,5.00,000.00,028.1,026.5,000.0,036.6,029.7,13.8,0000.0,0006.09,0003.68,0003.36
2023-10-16 09:53:00,SystemResetWarning,0838.9,5.00,000.00,028.1,026.5,000.0,036.6,029.7,13.8,0000.0,0006.15,0003.70,0003.39
2023-10-16 09:54:00,SystemResetWarning,0838.9,5.00,000.00,028.1,026.5,000.0,036.6,029.7,13.8,0000.0,0006.17,0003.71,0003.40
2023-10-16 09:55:00,SystemResetWarning,0838.9,4.99,000.00,028.1,026.4,000.0,036.5,029.7,13.8,0000.0,0006.89,0003.72,0003.41
2023-10-16 09:56:00,SystemResetWarning,0838.9,5.00,000.00,028.1,026.4,000.0,036.5,029.7,13.8,0000.0,0006.99,0003.73,0003.42
2023-10-16 09:57:00,SystemResetWarning,0838.9,5.00,000.00,028.0,026.4,000.0,036.5,029.7,13.8,0000.0,0007.00,0003.72,0003.41
2023-10-16 09:58:00,SystemResetWarning,0838.9,5.00,000.00,028.0,026.4,000.0,036.5,029.6,13.8,0000.0,0007.05,0003.71,0003.40
2023-10-16 09:59:00,SystemResetWarning,0838.9,5.00,000.00,028.0,026.4,000.0,036.5,029.6,13.8,0000.0,0007.72,0003.72,0003.40
